Regional Weather Roundup
Issued by NWS

Home | Current Version | Previous Version | Text Only | Print | Product List | Glossary Off
Versions: 1 2 3 4 5 6 7 8 9 10 11 12 13 14 15 16 17 18 19 20 21 22 23 24 25 26 27 28 29 30 31 32 33 34 35 36 37 38 39 40 41 42 43 44 45 46 47 48 49 50

000
ASUS45 KBOU 280210
RWRCO

WEATHER ROUNDUP FOR COLORADO
NATIONAL WEATHER SERVICE DENVER/BOULDER CO
800 PM MDT TUE SEP 27 2016

NOTE: "FAIR" INDICATES FEW OR NO CLOUDS BELOW 12000 FEET WITH NO
SIGNIFICANT WEATHER AND/OR OBSTRUCTIONS TO VISIBILITY.

COZ001>005-013-030-031-280300-
...NORTHWEST COLORADO...

CITY           SKY/WX    TMP DP  RH WIND       PRES   REMARKS
CRAIG          FAIR      55  39  54 CALM      30.24R
HAYDEN         FAIR      59  30  33 SW7       30.25S
MEEKER         FAIR      60  38  43 CALM      30.24R
MOUNT WERNER   NOT AVBL
STEAMBOAT SPGS FAIR      60  32  34 E3        30.27R
WALDEN           N/A     52  27  37 N7        30.36R
$$

COZ006>008-011-280300-
...WEST CENTRAL VALLEYS...

CITY           SKY/WX    TMP DP  RH WIND       PRES   REMARKS
GRAND JUNCTION FAIR      70  35  27 N8        30.12R
MONTROSE       FAIR      62  39  42 CALM      30.20R
EAGLE          FAIR      66  28  24 W9        30.23R
RIFLE          FAIR      68  36  30 NW7       30.15R
DELTA          FAIR      74  32  21 CALM      30.13R
NUCLA          FAIR      66  32  28 W8        30.23R
$$

COZ017>023-064>068-280300-
...SOUTHWEST COLORADO...

CITY           SKY/WX    TMP DP  RH WIND       PRES   REMARKS
DURANGO        FAIR      63  25  23 SW6       30.26R
CORTEZ         FAIR      58  38  47 CALM      30.22R
PAGOSA SPRINGS FAIR      58  27  31 W3        30.32R
TELLURIDE      MOCLDY    60  33  35 W6        30.42R
WOLF CREEK PAS FAIR      43  27  52 MISG      30.61R
$$

COZ009-010-012-014-032>034-037-058>063-280300-
...CENTRAL COLORADO...

CITY           SKY/WX    TMP DP  RH WIND       PRES   REMARKS
ASPEN          FAIR      55  32  41 S8        30.30R
BUENA VISTA    FAIR      57  26  30 CALM      30.30R
COPPER MTN     FAIR      54  14  20 NW8       30.61R
BERTHOUD PASS  FAIR      41  28  60 E14       30.65R
COTTONWOOD PAS MOCLDY    61  21  21 E7        30.43R
GUNNISON       FAIR      58  32  37 S3        30.29R
KREMMLING      FAIR      64  18  16 N5G16     30.29R
LEADVILLE      MOCLDY    53  19  26 N6        30.44R
MONARCH PASS   MOCLDY    48  27  43 SW9       30.69S
SALIDA         FAIR      69  26  19 SE9G17    30.34R
SUNLIGHT       FAIR      54  28  37 W8        30.55S
WILKERSON PASS FAIR      46  21  36 E12G20    30.58R
$$

COZ069>075-280300-
...SAN LUIS VALLEY/SANGRE DE CRISTO MOUNTAINS...

CITY           SKY/WX    TMP DP  RH WIND       PRES   REMARKS
ALAMOSA        FAIR      51  28  41 CALM      30.27R
LA VETA PASS   FAIR      52  30  43 MISG      30.47S
SAGUACHE       NOT AVBL
$$

COZ035-036-038>040-280300-
...NORTHERN COLORADO FRONT RANGE...

CITY           SKY/WX    TMP DP  RH WIND       PRES   REMARKS
DENVER INTL AP FAIR      71  22  15 NE3       30.15S
DMNS CITY PARK   N/A     62  35  35 E8        30.15R
AURORA         PTCLDY    70  23  17 E1        30.18R
FRONT RANGE AP PTCLDY    70  19  14 N3        30.17R
ERIE MUNI ARPT FAIR      60  31  33 SW3       30.14R
BOULDER MUN AP FAIR      66  36  32 W5        30.15S
CENTENNIAL     FAIR      68  25  19 CALM      30.19R
BROOMFIELD     PTCLDY    70  25  18 W6        30.18R
FORT COLLINS   FAIR      72  34  25 S3        30.12R
LONGMONT       FAIR      62  33  34 W5        30.16R
$$

COZ041-046-047-076>085-087-088-280300-
...PIKES PEAK/PALMER DIVIDE AND SOUTHERN FOOTHILLS...

CITY           SKY/WX    TMP DP  RH WIND       PRES   REMARKS
COLO. SPRINGS  FAIR      67  29  24 E5        30.22R
A. F. ACADEMY  FAIR      59  30  33 N10       30.23R
SCHRIEVER AFB  NOT AVBL
ELLICOTT       NOT AVBL
FALCON         FAIR      58  31  35 W5        30.27R
FORT CARSON    FAIR      68  30  24 W6        30.18R
LIMON          FAIR      56  23  27 N3        30.15R
MONUMENT HILL  FAIR      54  25  32 SE5       30.29R
TRINIDAD       FAIR      64  31  28 W3        30.17R
$$

COZ042>045-048>051-090-091-280300-
...NORTHEAST COLORADO...

CITY           SKY/WX    TMP DP  RH WIND       PRES   REMARKS
GREELEY ARPT   FAIR      61  37  41 N5        30.12R
AKRON          FAIR      64  24  21 CALM      30.11R
BURLINGTON     FAIR      63  38  39 SW7       30.07R
WRAY           NOT AVBL
STERLING       FAIR      70  37  30 NE6       30.06R
HOLYOKE        FAIR      63  36  36 N6        30.05S
FORT MORGAN    FAIR      68  25  20 E3        30.11R
$$

COZ086-089-092>099-280300-
...SOUTHEAST COLORADO...

CITY           SKY/WX    TMP DP  RH WIND       PRES   REMARKS
PUEBLO         FAIR      68  32  26 E7        30.09R
LA JUNTA       FAIR      70  33  25 E7        30.08R
LAMAR          FAIR      70  37  29 SE13      30.04R
SPRINGFIELD    NOT AVBL
$$



USA.gov is the U.S. government's official web portal to all federal, state and local government web resources and services.